CZ-4 DEB - Orbit

View from above orbital plane
View from above orbital plane
View from above satellite
View from above satellite

Ground track
Ground track

The orbit data is extracted from the following two-line orbital elements,

1 29508U 06046D   13141.77635288  .00010719  00000-0  82088-3 0  2952
2 29508 097.6968 143.9578 0006876 183.8975 228.5093 15.02027511358410
Epoch (UTC): 21 May 2013 18:37:56
Eccentricity: 0.0006876
inclination: 97.6968°
perigee height: 556 km
apogee height: 565 km
right ascension of ascending node: 143.9578°
argument of perigee: 183.8975°
revolutions per day: 15.02027511
mean anomaly at epoch: 228.5093°
orbit number at epoch: 35841

The dashed part of the orbit path shows where the satellite is in the earth's shadow,  

Developed and maintained by Chris Peat, Heavens-Above GmbH. Please read the updated FAQ before sending e-mail. Imprint. DLR